Torna al catalogo

ONEWEB-0256

AttivoComunicazioniPO
NORAD 48974·PAYLOAD·🇬🇧 United Kingdom

Lanciato Jul 1, 2021 da Vostochny Cosmodrome

Loading…

Prossimi Passaggi (prossime 24 ore)

TLE

AggiornatoSource: CelesTrak SupGP

Epoca: Sep 14, 2026, 14:42 UTC

1 48974C 21060H   26257.61299026 -.00001110  00000+0 -29078-2 0  2577
2 48974  87.9148 211.0242 0002175  82.4330   4.2028 13.16592987    16

Traccia ONEWEB-0256 in tempo reale con AllMySat

Download on the App Store